Weather History for LIED - September, 2012

Change the Weather History Date:

Sunday, September 30, 2012

  Actual Average Record
Temperature  
Mean Temperature 74 °F -  
Max Temperature 82 °F 74 °F 86 °F (1999)
Min Temperature 65 °F 55 °F 46 °F (2002)
Cooling Degree Days 8    
Growing Degree Days 24 (Base 50)    
Moisture  
Dew Point 62 °F    
Average Humidity 68    
Maximum Humidity 88    
Minimum Humidity 35    
Precipitation  
Precipitation 0.00 in 0.07 in - ()
Sea Level Pressure  
Sea Level Pressure 29.97 in    
Wind  
Wind Speed 6 mph ()    
Max Wind Speed 17 mph    
Max Gust Speed -    
Visibility 7.1 miles    
Events Rain    
Averages and records for this station are not official NWS values.
T = Trace of Precipitation, MM = Missing Value Source: Averaged Metar Reports

Daily Weather History Graph

Daily Weather History Graph

Search for Another Location

Airport or City:

Trip Planner

Search our weather history database for the weather conditions in past years. The results will help you decide how hot, cold, wet, or windy it might be!

Date:

Astronomy

Sep. 30, 2012 Rise Set
Actual Time 7:19 AM CEST 7:07 PM CEST
Civil Twilight 6:52 AM CEST 7:34 PM CEST
Nautical Twilight 6:21 AM CEST 8:05 PM CEST
Astronomical Twilight 5:50 AM CEST 8:37 PM CEST
Moon 7:03 PM CEST (9/30) 7:33 AM CEST (9/30)
Length of Visible Light 12h 41m
Length of Day
11h 48m
Full, 100% of the Moon is Illuminated
Sep 30
Full
Oct 8
Last Quarter
Oct 15
New
Oct 22
First Quarter
Oct 29
Full

Hourly Weather History & Observations

Time (CEST) Temp. Heat Index Dew Point Humidity Pressure Visibility Wind Dir Wind Speed Gust Speed Precip Events Conditions
12:55 AM 71.6 °F - 66.2 °F 83% 29.95 in 6.2 mi North 6.9 mph - N/A   Partly Cloudy
1:55 AM 69.8 °F - 66.2 °F 88% 29.95 in 6.2 mi NW 3.5 mph - N/A   Partly Cloudy
2:00 AM 69 °F - 65 °F 84% 29.97 in 9 mi NW 3.5 mph - -   Partly Cloudy
2:55 AM 68.0 °F - 64.4 °F 88% 29.95 in 6.2 mi North 8.1 mph - N/A Rain Light Rain
3:55 AM 68.0 °F - 64.4 °F 88% 29.95 in 5.0 mi NW 4.6 mph - N/A Rain Light Rain
5:00 AM 68 °F - 63 °F 79% 29.97 in 7 mi NNW 4.6 mph - - Rain Light Rain
5:55 AM 68.0 °F - 62.6 °F 83% 29.95 in 6.2 mi NNW 6.9 mph - N/A   Scattered Clouds
6:55 AM 66.2 °F - 60.8 °F 83% 29.95 in 6.2 mi NW 6.9 mph - N/A   Scattered Clouds
7:55 AM 66.2 °F - 60.8 °F 83% 29.98 in 6.2 mi NNW 2.3 mph - N/A   Scattered Clouds
8:00 AM 67 °F - 62 °F 77% 29.99 in 7 mi NNW 2.3 mph - -   Partly Cloudy
8:55 AM 68.0 °F - 62.6 °F 83% 29.98 in 6.2 mi NNW 4.6 mph - N/A   Scattered Clouds
9:55 AM 71.6 °F - 62.6 °F 73% 29.98 in 6.2 mi North 6.9 mph - N/A   Scattered Clouds
10:55 AM 75.2 °F - 64.4 °F 69% 29.98 in 6.2 mi NNW 5.8 mph - N/A   Mostly Cloudy
11:00 AM 75 °F - 65 °F 63% 29.99 in 9 mi NNW 5.8 mph - -   Partly Cloudy
11:55 AM 77.0 °F - 62.6 °F 61% 29.98 in 6.2 mi NW 8.1 mph - N/A   Mostly Cloudy
12:55 PM 78.8 °F - 62.6 °F 57% 29.98 in 6.2 mi NW 10.4 mph - N/A   Mostly Cloudy
1:55 PM 80.6 °F 81.1 °F 59.0 °F 48% 29.95 in 6.2 mi NW 11.5 mph - N/A   Mostly Cloudy
2:00 PM 81 °F - 60 °F 38% 29.96 in 6 mi NW 11.5 mph - -   Partly Cloudy
2:55 PM 80.6 °F 80.8 °F 57.2 °F 45% 29.95 in 6.2 mi NNW 11.5 mph - N/A   Mostly Cloudy
4:55 PM 80.6 °F 80.8 °F 57.2 °F 45% 29.95 in 6.2 mi NNW 15.0 mph - N/A   Scattered Clouds
5:00 PM 81 °F - 58 °F 35% 29.94 in 12 mi NNW 15.0 mph - -   Partly Cloudy
5:55 PM 78.8 °F - 59.0 °F 51% 29.95 in 6.2 mi NW 17.3 mph - N/A   Scattered Clouds
6:55 PM 77.0 °F - 59.0 °F 54% 29.95 in 6.2 mi NNW 12.7 mph - N/A   Partly Cloudy
7:55 PM 75.2 °F - 59.0 °F 57% 29.98 in 6.2 mi North 11.5 mph - N/A   Scattered Clouds
8:00 PM 75 °F - 59 °F 48% 29.98 in 12 mi North 11.5 mph - -   Partly Cloudy
8:55 PM 73.4 °F - 62.6 °F 69% 30.01 in - NNE 8.1 mph - N/A   Clear
9:55 PM 71.6 °F - 64.4 °F 78% 30.01 in - North 4.6 mph - N/A   Clear
10:55 PM 69.8 °F - 64.4 °F 83% 30.01 in - NNW 3.5 mph - N/A   Clear
11:00 PM 69 °F - 64 °F 78% 30.03 in 12 mi NNW 3.5 mph - -  
11:55 PM 68.0 °F - 62.6 °F 83% 30.04 in - North 4.6 mph - N/A   Clear